Location: Colonial Hills
(40.5656°N, 77.6119°W)
Time: 02:42:56
(UTC+00:00)

X-37B - Pass Details

Date: 28 November 2020
Orbit: 383 x 391 km, 45.1° (Epoch: 22 January)

Event Time Altitude Azimuth Distance (km) Brightness Sun altitude
Rises 00:10:14 0° 257° (WSW) 2,257 5.7 -27.1°
Reaches altitude 10° 00:12:19 10° 261° (W) 1,406 4.4 -27.4°
Enters shadow 00:13:17 18° 265° (W) 1,026 3.5 -27.6°
